Preview of NWS' New Version of Forecast
This preview is not operational and should not be used for support decisions.

Regional Weather Roundup (RWR)

Issued by National Weather Service (NWS)

                            
000
ASUS46 KSEW 192010
RWRWA 

WASHINGTON REGIONAL WEATHER ROUNDUP
NATIONAL WEATHER SERVICE SEATTLE WA
1200 PM PST TUE FEB 19 2019

NOTE:"FAIR" INDICATES FEW OR NO CLOUDS BELOW 12,000 FEET WITH NO 
SIGNIFICANT WEATHER AND/OR OBSTRUCTIONS TO VISIBILITY.

WAZ507-509-555>559-192100-
SEATTLE, TACOMA, EVERETT, AND VICINITY
  
CITY           SKY/WX    TMP DP  RH WIND       PRES   REMARKS
EVERETT        CLOUDY    40  36  86 S9        30.13F                  
BOEING FIELD   CLOUDY    41  36  82 S7        30.15F                  
RENTON         CLOUDY    41  36  82 SE9       30.15F                  
SEATAC AIRPORT CLOUDY    40  36  86 S9        30.13F                  
JBLM-MCCHORD   CLOUDY    39  39 100 S9        30.15F                  
PUYALLUP       CLOUDY    39  39 100 S7        30.15F                  
BREMERTON      CLOUDY    38  37  97 SW9       30.13F                  
JBLM-FT LEWIS  CLOUDY    40  40 100 S10       30.15F                  
TACOMA NARROWS CLOUDY    40  36  86 S14       30.14F                  
$$
 
WAZ001-503-506-510-514-515-192100-
NORTH INTERIOR
  
CITY           SKY/WX    TMP DP  RH WIND       PRES   REMARKS
BELLINGHAM     LGT RAIN  38  35  89 S10       30.10F                  
FRIDAY HARBOR  LGT RAIN  42  37  82 SW8       30.11F                  
EASTSOUND      LGT RAIN  41  37  87 S8        30.09F                  
PORT ANGELES   LGT RAIN  40  31  70 SW9       30.11F                  
EDIZ HOOK      DRIZZLE   42  33  72 S5        30.12F                  
PORT TOWNSEND  PTSUNNY   41  37  87 SE7       30.12F                  
NAS WHIDBEY    NOT AVBL                                               
ARLINGTON      LGT RAIN  39  37  92 SE9       30.15F                  
BURLINGTON     PTSUNNY   39  37  93 SE5       30.13F                  
$$
 
WAZ020-022-039-040-504-511-512-192100-
SOUTHWEST INTERIOR
  
CITY           SKY/WX    TMP DP  RH WIND       PRES   REMARKS
SHELTON        CLOUDY    40  35  83 SW10      30.12F                  
OLYMPIA        CLOUDY    40  38  93 S10       30.16F                  
CHEHALIS       CLOUDY    43  39  87 SW7       30.18F                  
KELSO          LGT RAIN  40  38  93 S8        30.23F FOG              
VANCOUVER      CLOUDY    42  36  79 S5        30.23S                  
SCAPPOOSE, OR  CLOUDY    44  37  76 CALM      30.23S                  
PORTLAND, OR   CLOUDY    43  35  73 SW7       30.24S                  
$$
 
WAZ021-516-517-192100-
WASHINGTON COAST
  
CITY           SKY/WX    TMP DP  RH WIND       PRES   REMARKS
FORKS          LGT RAIN  40  30  67 S5        30.13F                  
HOQUIAM        LGT RAIN  44  42  93 SW7       30.16F                  
ASTORIA, OR    CLOUDY    45  40  82 W10       30.20F                  
$$
 
WAZ019-023-024-040-567>569-192100-
CASCADE MOUNTAINS AND COLUMBIA GORGE
  
CITY           SKY/WX    TMP DP  RH WIND       PRES   REMARKS
STAMPEDE PASS  LGT SNOW  27  24  89 VRB7      29.95F VSB 3/4          
TROUTDALE, OR  CLOUDY    42  36  79 W7        30.23F                  
HOOD RIVER, OR CLOUDY    37  32  81 W12G18    30.15F                  
THE DALLES, OR CLOUDY    42  32  67 NW3       30.13F                  
$$

WAZ026-027-041>044-520-521-192100-
EAST SLOPES
  
CITY           SKY/WX    TMP DP  RH WIND       PRES   REMARKS
OMAK           MOSUNNY   21  13  71 SW5       30.09F                  
WENATCHEE      PTSUNNY   21  14  74 SE3       30.08F                  
ELLENSBURG     CLOUDY    35  25  66 SE6       30.02F                  
YAKIMA         CLOUDY    26  20  77 S3        30.10F                  
SUNNYSIDE ARPT CLOUDY    22  21  96 SE3       30.14  FOG              
YAKIMA TC      CLOUDY    24  19  80 CALM      30.06F                  
$$

WAZ028-034-035-192100-
COLUMBIA BASIN
  
CITY           SKY/WX    TMP DP  RH WIND       PRES   REMARKS
EPHRATA        MOSUNNY   24  13  62 NE5       30.09F                  
MOSES LAKE     SUNNY     23  15  71 CALM      30.10F                  
PASCO          CLOUDY    26  18  71 N5        30.17F                  
RICHLAND ARPT  CLOUDY    28  21  75 CALM      30.17F                  
HERMISTON, OR  PTSUNNY   31  25  78 CALM      30.13F                  
$$

WAZ036>038-192100-
NORTHEAST WASHINGTON
  
CITY           SKY/WX    TMP DP  RH WIND       PRES   REMARKS
SPOKANE GEIGER LGT SNOW  22  14  71 E5        30.01F                  
SPOKANE FELTS  LGT SNOW  22  15  75 CALM      30.04F                  
FAIRCHILD AFB  FLURRIES  20  17  87 E6        29.98F                  
COEURDALENE,ID FLURRIES  24  18  77 S6        30.02F                  
DEER PARK      LGT SNOW  19  15  84 CALM      30.03F FOG              
$$

WAZ029>033-192100-
SOUTHEAST WASHINGTON
  
CITY           SKY/WX    TMP DP  RH WIND       PRES   REMARKS
PULLMAN        LGT SNOW  24  20  84 E6        30.02F FOG              
LEWISTON, ID   CLOUDY    27  21  78 SE5       30.09F                  
WALLA WALLA    CLOUDY    28  23  81 S9        30.09F HAZE             
PENDLETON, OR  PTSUNNY   36  29  75 W14       30.07F                  
$$